Flag for U.S.A. Weather past 2 weeks in Cape Coral, Florida, U.S.A.

Now
75 °F

Clear.


Feels Like: 74 °F
Forecast: 75 / 86 °F
Wind: 5 mph from Southeast

Location: Page Field

Current Time: Aug 3, 2015 at 5:37:22 AM

Latest Report: Aug 3, 2015 at 4:53 AM


Visibility: 10 mi

Pressure: 29.92 "Hg

Humidity: 90%

Dew point: 72 °F

Location of Cape CoralLocation

Historic Weather in Cape Coral — Graph

°F

Cape Coral temperature yesterday

Maximum temperature yesterday: 90 °F (at 12:53 PM)
Minimum temperature yesterday: 76 °F (at 4:53 AM)
Average temperature yesterday: 82 °F

Past Weeks' High & Low Weather Summary

 TemperatureHumidityPressure
High93 °F (Jul 23, 1:53 PM)100% (Jul 26, 2:53 PM)30.07 "Hg (Jul 26, 2:53 PM)
Low73 °F (Jul 26, 8:53 AM)50% (Jul 20, 3:53 PM)29.86 "Hg (Jul 26, 3:53 AM)
Average82 °F80%29.98 "Hg
* Reported Jul 19 3:53 AM — Aug 3 3:53 AM, Cape Coral, Weather by CustomWeather, © 2015

Note: Actual official high and low records may vary slightly from our data, if they occured in-between our weather recording intervals... More about our weather records

Advertising

Cape Coral weather history for previous 24 hours

 ConditionsComfort  
Time TempWeatherWind HumidityBarometerVisibility
3:53 AM
Mon, Aug 3
76 °FClear.7 mph88%29.91 "Hg10 mi
2:53 AM77 °FClear.5 mph88%29.92 "Hg10 mi
1:53 AM77 °FClear.6 mph88%29.95 "Hg10 mi
12:53 AM78 °FClear.5 mph84%29.96 "Hg10 mi
11:53 PM
Sun, Aug 2
78 °FClear.6 mph87%29.97 "Hg10 mi
10:53 PM79 °FClear.5 mph84%29.97 "Hg10 mi
9:53 PM81 °FClear.5 mph72%29.97 "Hg10 mi
8:53 PM82 °FScattered clouds.5 mph67%29.97 "Hg10 mi
7:53 PM83 °FPartly sunny.6 mph65%29.96 "Hg10 mi
6:53 PM83 °FSunny.7 mph68%29.96 "Hg10 mi
5:53 PM84 °FSunny.12 mph65%29.97 "Hg10 mi
4:53 PM84 °FSunny.10 mph65%29.95 "Hg10 mi
3:53 PM89 °FPassing clouds.17 mph61%29.95 "Hg10 mi
2:53 PM88 °FPassing clouds.13 mph67%29.96 "Hg10 mi
1:53 PM88 °FSunny.12 mph61%29.97 "Hg10 mi
12:53 PM90 °FPassing clouds.8 mph66%29.97 "Hg10 mi
11:53 AM89 °FPassing clouds.9 mph68%29.97 "Hg10 mi
10:53 AM86 °FPassing clouds.10 mph72%29.97 "Hg10 mi
9:53 AM85 °FScattered clouds.8 mph77%29.96 "Hg10 mi
8:53 AM82 °FSunny.6 mph85%29.96 "Hg10 mi
7:53 AM80 °FSunny.6 mph87%29.94 "Hg9 mi
6:53 AM79 °FClear.5 mph94%29.93 "Hg10 mi
5:53 AM78 °FClear.5 mph93%29.92 "Hg9 mi
Weather by CustomWeather, © 2015

See weather overviewHow to use our weather pages